This is the latest recevied weather packets stored in our database for station/object p43g-13. If no packets are shown the sender has not sent any weather packets the latest 10 day(s).
| Time | Temp. | Humidity | Pressure | Rain* | Wind** | Luminosity | Snow |
|---|---|---|---|---|---|---|---|
| 1788105056 | 32.22° C | 68% | 1012 hPa | 0 mm | - | 939 W/m² | - |
| 1788104755 | 32.22° C | 69% | 1012.2 hPa | 0 mm | - | 939 W/m² | - |
| 1788104455 | 32.22° C | 70% | 1012 hPa | 0 mm | - | 939 W/m² | - |
| 1788104155 | 31.67° C | 70% | 1012.1 hPa | 0 mm | - | 936 W/m² | - |
| 1788103860 | 31.67° C | 70% | 1011.9 hPa | 0 mm | - | 936 W/m² | - |
| 1788103555 | 32.22° C | 70% | 1012.3 hPa | 0 mm | - | 910 W/m² | - |
| 1788103255 | 31.67° C | 71% | 1012.1 hPa | 0 mm | - | 913 W/m² | - |
| 1788102955 | 31.67° C | 70% | 1012 hPa | 0 mm | - | 559 W/m² | - |
| 1788102655 | 32.22° C | 72% | 1012.2 hPa | 0 mm | - | 882 W/m² | - |
| 1788102355 | 31.67° C | 71% | 1012.4 hPa | 0 mm | - | 907 W/m² | - |
| 1788102055 | 32.22° C | 70% | 1012.2 hPa | 0 mm | - | 870 W/m² | - |
| 1788101755 | 31.67° C | 72% | 1012.1 hPa | 0 mm | - | 877 W/m² | - |
| 1788101455 | 31.67° C | 71% | 1012 hPa | 0 mm | - | 877 W/m² | - |
| 1788101154 | 32.22° C | 69% | 1012.2 hPa | 0 mm | - | 834 W/m² | - |
| 1788100855 | 31.67° C | 71% | 1012.1 hPa | 0 mm | - | 595 W/m² | - |
| 1788100555 | 31.67° C | 70% | 1012 hPa | 0 mm | - | 790 W/m² | - |
| 1788100255 | 31.67° C | 70% | 1012 hPa | 0 mm | - | 794 W/m² | - |
| 1788099955 | 31.67° C | 70% | 1011.8 hPa | 0 mm | - | 703 W/m² | - |
| 1788099655 | 31.67° C | 71% | 1011.8 hPa | 0 mm | - | 754 W/m² | - |
| 1788099355 | 31.67° C | 71% | 1012 hPa | 0 mm | - | 739 W/m² | - |
| 1788099054 | 31.67° C | 71% | 1011.9 hPa | 0 mm | - | 730 W/m² | - |
| 1788098755 | 31.67° C | 70% | 1012 hPa | 0 mm | - | 689 W/m² | - |
| 1788098455 | 31.67° C | 72% | 1011.9 hPa | 0 mm | - | 724 W/m² | - |
| 1788098155 | 31.11° C | 71% | 1012 hPa | 0 mm | - | 667 W/m² | - |
| 1788097855 | 31.67° C | 71% | 1011.9 hPa | 0 mm | - | 312 W/m² | - |
* Rain latest hour (hover to see other rain measurements)
** Current wind speed in m/s (hover to see current wind gust speed)